| time (UTC) | temp F | wind direction | speed MPH | gust MPH | rain 1hr in | rain 24hr in | rain mn in | humidity % | barometer mb |
| 20260505153003 | 58 | 356 | 6.0 | 11.0 | 0.00 | 0.00 | 0.00 | 56 | 1012.3 |
| 20260505152003 | 58 | 347 | 6.0 | 14.0 | 0.00 | 0.00 | 0.00 | 56 | 1012.3 |
| 20260505151003 | 58 | 352 | 7.0 | 14.0 | 0.00 | 0.00 | 0.00 | 57 | 1012.1 |
| 20260505124003 | 59 | 4 | 5.0 | 9.0 | 0.00 | 0.00 | 0.00 | 51 | 1012.7 |
| 20260505123003 | 60 | 8 | 5.0 | 13.0 | 0.00 | 0.00 | 0.00 | 49 | 1012.8 |
| 20260505122003 | 58 | 9 | 5.0 | 13.0 | 0.00 | 0.00 | 0.00 | 51 | 1012.7 |
| 20260505121003 | 59 | 359 | 5.0 | 11.0 | 0.00 | 0.00 | 0.00 | 50 | 1012.8 |
| 20260505120003 | 57 | 10 | 6.0 | 18.0 | 0.00 | 0.00 | 0.00 | 52 | 1012.8 |
| 20260505115003 | 59 | 1 | 5.0 | 10.0 | 0.00 | 0.00 | 0.00 | 53 | 1012.5 |
| 20260505114003 | 60 | 7 | 6.0 | 13.0 | 0.00 | 0.00 | 0.00 | 49 | 1012.5 |
| 20260505113003 | 60 | 3 | 5.0 | 11.0 | 0.00 | 0.00 | 0.00 | 50 | 1012.7 |
| 20260505112003 | 59 | 6 | 5.0 | 11.0 | 0.00 | 0.00 | 0.00 | 51 | 1012.9 |
| 20260505111003 | 59 | 8 | 6.0 | 13.0 | 0.00 | 0.00 | 0.00 | 52 | 1012.9 |
| 20260505102003 | 58 | 3 | 5.0 | 10.0 | 0.00 | 0.00 | 0.00 | 55 | 1013.0 |
| 20260505101218 | 56 | 355 | 5.0 | 11.0 | 0.00 | 0.00 | 0.00 | 58 | 1013.1 |
| 20260505100003 | 56 | 357 | 5.0 | 11.0 | 0.00 | 0.00 | 0.00 | 55 | 1013.1 |
| 20260505095003 | 58 | 354 | 6.0 | 14.0 | 0.00 | 0.00 | 0.00 | 54 | 1013.0 |
| 20260505094003 | 58 | 5 | 5.0 | 14.0 | 0.00 | 0.00 | 0.00 | 56 | 1013.2 |
| 20260505093003 | 56 | 11 | 6.0 | 11.0 | 0.00 | 0.00 | 0.00 | 58 | 1013.1 |
| 20260505092003 | 56 | 18 | 7.0 | 16.0 | 0.00 | 0.00 | 0.00 | 59 | 1013.2 |
| 20260505091003 | 56 | 14 | 6.0 | 13.0 | 0.00 | 0.00 | 0.00 | 57 | 1013.3 |
| 20260505090003 | 57 | 360 | 5.0 | 10.0 | 0.00 | 0.00 | 0.00 | 56 | 1013.2 |
| 20260505085003 | 56 | 4 | 6.0 | 14.0 | 0.00 | 0.00 | 0.00 | 58 | 1013.4 |
| 20260505084003 | 56 | 7 | 5.0 | 11.0 | 0.00 | 0.00 | 0.00 | 60 | 1013.4 |
| 20260505083003 | 56 | 2 | 4.0 | 8.0 | 0.00 | 0.00 | 0.00 | 63 | 1013.5 |
| 20260505082003 | 54 | 6 | 4.0 | 11.0 | 0.00 | 0.00 | 0.00 | 66 | 1013.4 |
| 20260505081003 | 53 | 12 | 4.0 | 13.0 | 0.00 | 0.00 | 0.00 | 67 | 1013.5 |
| 20260505080003 | 53 | 1 | 2.0 | 4.0 | 0.00 | 0.00 | 0.00 | 70 | 1013.5 |
| 20260505075003 | 52 | 353 | 4.0 | 8.0 | 0.00 | 0.00 | 0.00 | 70 | 1013.4 |
| 20260505074003 | 52 | 1 | 4.0 | 9.0 | 0.00 | 0.00 | 0.00 | 70 | 1013.5 |
| 20260505073218 | 52 | 355 | 4.0 | 9.0 | 0.00 | 0.00 | 0.00 | 70 | 1013.7 |
| 20260505072003 | 51 | 358 | 4.0 | 9.0 | 0.00 | 0.00 | 0.00 | 70 | 1013.5 |
| 20260505071003 | 51 | 11 | 4.0 | 11.0 | 0.00 | 0.00 | 0.00 | 71 | 1013.5 |
| 20260505070003 | 51 | 7 | 4.0 | 11.0 | 0.00 | 0.00 | 0.00 | 72 | 1013.5 |
| 20260505065217 | 51 | 9 | 3.0 | 8.0 | 0.00 | 0.00 | 0.00 | 75 | 1013.7 |
| 20260505064003 | 51 | 6 | 3.0 | 7.0 | 0.00 | 0.00 | 0.00 | 76 | 1013.6 |
| 20260505063003 | 50 | 6 | 2.0 | 4.0 | 0.00 | 0.00 | 0.00 | 78 | 1013.4 |
| 20260505062220 | 50 | 11 | 2.0 | 6.0 | 0.00 | 0.00 | 0.00 | 79 | 1013.6 |
| 20260505061003 | 50 | 11 | 3.0 | 7.0 | 0.00 | 0.00 | 0.00 | 79 | 1013.5 |
| 20260505060216 | 50 | 11 | 2.0 | 4.0 | 0.00 | 0.00 | 0.00 | 80 | 1013.4 |
| 20260505055003 | 50 | 9 | 2.0 | 4.0 | 0.00 | 0.00 | 0.00 | 80 | 1013.4 |
| 20260505054003 | 49 | 8 | 1.0 | 4.0 | 0.00 | 0.00 | 0.00 | 81 | 1013.8 |
| 20260505053219 | 49 | 8 | 1.0 | 2.0 | 0.00 | 0.00 | 0.00 | 82 | 1013.7 |
| 20260505052003 | 49 | 6 | 1.0 | 3.0 | 0.00 | 0.00 | 0.00 | 86 | 1013.6 |
| 20260505051003 | 49 | 3 | 0.0 | 1.0 | 0.00 | 0.00 | 0.00 | 88 | 1013.7 |
| 20260505041003 | 49 | 2 | 1.0 | 3.0 | 0.00 | 0.00 | 0.00 | 89 | 1013.4 |
| 20260505040003 | 48 | 6 | 2.0 | 4.0 | 0.00 | 0.00 | 0.00 | 90 | 1013.1 |
| 20260505035003 | 48 | 357 | 2.0 | 6.0 | 0.00 | 0.00 | 0.00 | 90 | 1013.2 |
| 20260505034003 | 48 | 355 | 3.0 | 7.0 | 0.00 | 0.00 | 0.00 | 91 | 1013.3 |
| 20260505033003 | 48 | 356 | 3.0 | 6.0 | 0.00 | 0.00 | 0.00 | 92 | 1013.2 |
| 20260505032003 | 48 | 358 | 1.0 | 4.0 | 0.00 | 0.00 | 0.00 | 92 | 1013.4 |
| 20260505031003 | 48 | 357 | 1.0 | 3.0 | 0.00 | 0.00 | 0.00 | 92 | 1013.7 |
| 20260505030218 | 48 | 357 | 1.0 | 1.0 | 0.00 | 0.00 | 0.00 | 92 | 1013.7 |
| 20260505025003 | 48 | 357 | 0.0 | 1.0 | 0.00 | 0.00 | 0.00 | 91 | 1013.7 |
| 20260505024003 | 48 | 357 | 0.0 | 1.0 | 0.00 | 0.00 | 0.00 | 91 | 1013.7 |
| 20260505023003 | 48 | 357 | 0.0 | 1.0 | 0.00 | 0.00 | 0.00 | 90 | 1013.6 |
| 20260505022003 | 47 | 354 | 0.0 | 1.0 | 0.00 | 0.00 | 0.00 | 89 | 1013.8 |
| 20260505021003 | 48 | 353 | 0.0 | 2.0 | 0.00 | 0.00 | 0.00 | 89 | 1013.8 |
| 20260505020003 | 48 | 354 | 0.0 | 1.0 | 0.00 | 0.00 | 0.00 | 89 | 1013.9 |
| 20260505015220 | 48 | 0 | 0.0 | 0.0 | 0.00 | 0.00 | 0.00 | 88 | 1013.7 |
| 20260505014221 | 48 | 0 | 0.0 | 0.0 | 0.00 | 0.00 | 0.00 | 88 | 1013.7 |
| 20260505013217 | 49 | 348 | 0.0 | 2.0 | 0.00 | 0.00 | 0.00 | 87 | 1014.0 |
| 20260505012003 | 49 | 347 | 1.0 | 2.0 | 0.00 | 0.00 | 0.00 | 87 | 1013.8 |
| 20260505011003 | 49 | 352 | 1.0 | 3.0 | 0.00 | 0.00 | 0.00 | 86 | 1013.7 |
| 20260505010220 | 49 | 357 | 2.0 | 4.0 | 0.00 | 0.00 | 0.00 | 86 | 1013.8 |
| 20260505005004 | 49 | 352 | 3.0 | 4.0 | 0.00 | 0.00 | 0.00 | 86 | 1013.6 |
| 20260505004003 | 49 | 347 | 2.0 | 4.0 | 0.00 | 0.00 | 0.00 | 86 | 1013.9 |
| 20260505003003 | 49 | 348 | 1.0 | 3.0 | 0.00 | 0.00 | 0.00 | 86 | 1014.0 |
| 20260505002003 | 50 | 348 | 1.0 | 3.0 | 0.00 | 0.00 | 0.00 | 86 | 1013.8 |
| 20260505001003 | 50 | 346 | 1.0 | 2.0 | 0.00 | 0.00 | 0.00 | 86 | 1014.2 |
| 20260505000003 | 50 | 352 | 1.0 | 2.0 | 0.00 | 0.00 | 0.00 | 85 | 1014.2 |
| 20260504235003 | 51 | 357 | 1.0 | 3.0 | 0.00 | 0.00 | 0.00 | 84 | 1014.4 |
| 20260504234003 | 51 | 4 | 1.0 | 3.0 | 0.00 | 0.00 | 0.00 | 84 | 1014.4 |
| 20260504233003 | 51 | 6 | 1.0 | 2.0 | 0.00 | 0.00 | 0.00 | 84 | 1014.3 |
| 20260504232003 | 52 | 4 | 1.0 | 4.0 | 0.00 | 0.00 | 0.00 | 84 | 1014.3 |
| 20260504231003 | 52 | 5 | 1.0 | 3.0 | 0.00 | 0.00 | 0.00 | 84 | 1014.1 |
| 20260504230003 | 52 | 6 | 1.0 | 3.0 | 0.00 | 0.00 | 0.00 | 84 | 1014.3 |
| 20260504225003 | 52 | 12 | 2.0 | 4.0 | 0.00 | 0.00 | 0.00 | 84 | 1014.2 |
| 20260504224003 | 52 | 15 | 2.0 | 6.0 | 0.00 | 0.00 | 0.00 | 83 | 1014.1 |
| 20260504223003 | 53 | 16 | 3.0 | 7.0 | 0.00 | 0.00 | 0.00 | 82 | 1014.2 |
| 20260504222003 | 53 | 15 | 3.0 | 6.0 | 0.00 | 0.00 | 0.00 | 82 | 1013.9 |
| 20260504221221 | 53 | 13 | 2.0 | 6.0 | 0.00 | 0.00 | 0.00 | 82 | 1014.1 |
| 20260504220003 | 53 | 6 | 2.0 | 4.0 | 0.00 | 0.00 | 0.00 | 82 | 1014.2 |
| 20260504215003 | 53 | 10 | 2.0 | 6.0 | 0.00 | 0.00 | 0.00 | 82 | 1014.1 |
| 20260504214003 | 53 | 10 | 2.0 | 4.0 | 0.00 | 0.00 | 0.00 | 82 | 1014.3 |
| 20260504213003 | 53 | 11 | 3.0 | 7.0 | 0.00 | 0.00 | 0.00 | 81 | 1014.1 |
| 20260504212003 | 53 | 10 | 2.0 | 6.0 | 0.00 | 0.00 | 0.00 | 82 | 1014.4 |
| 20260504211221 | 54 | 9 | 2.0 | 6.0 | 0.00 | 0.00 | 0.00 | 81 | 1014.2 |
| 20260504210003 | 54 | 11 | 2.0 | 6.0 | 0.00 | 0.00 | 0.00 | 80 | 1014.1 |
| 20260504205003 | 54 | 12 | 2.0 | 6.0 | 0.00 | 0.00 | 0.00 | 79 | 1014.3 |
| 20260504204219 | 54 | 12 | 2.0 | 4.0 | 0.00 | 0.00 | 0.00 | 80 | 1014.2 |
| 20260504203003 | 55 | 6 | 2.0 | 4.0 | 0.00 | 0.00 | 0.00 | 79 | 1014.2 |
| 20260504202003 | 55 | 4 | 2.0 | 3.0 | 0.00 | 0.00 | 0.00 | 79 | 1014.3 |
| 20260504201003 | 55 | 3 | 1.0 | 3.0 | 0.00 | 0.00 | 0.00 | 79 | 1014.1 |
| 20260504200218 | 55 | 7 | 2.0 | 3.0 | 0.00 | 0.00 | 0.00 | 80 | 1014.0 |
| 20260504195003 | 55 | 8 | 2.0 | 3.0 | 0.00 | 0.00 | 0.00 | 80 | 1013.9 |
| 20260504194003 | 56 | 9 | 2.0 | 3.0 | 0.00 | 0.00 | 0.00 | 80 | 1013.6 |
| 20260504193003 | 56 | 10 | 2.0 | 4.0 | 0.00 | 0.00 | 0.00 | 79 | 1013.6 |
| 20260504192216 | 57 | 11 | 2.0 | 4.0 | 0.00 | 0.00 | 0.00 | 78 | 1013.4 |
| 20260504191003 | 57 | 16 | 3.0 | 6.0 | 0.00 | 0.00 | 0.00 | 77 | 1013.5 |
| 20260504190003 | 58 | 17 | 3.0 | 6.0 | 0.00 | 0.00 | 0.00 | 77 | 1013.3 |
| 20260504185003 | 58 | 20 | 3.0 | 7.0 | 0.00 | 0.00 | 0.00 | 77 | 1013.4 |
| 20260504184220 | 59 | 20 | 3.0 | 7.0 | 0.00 | 0.00 | 0.00 | 76 | 1013.4 |
| 20260504183003 | 59 | 16 | 2.0 | 6.0 | 0.00 | 0.00 | 0.00 | 73 | 1013.2 |
| 20260504182003 | 59 | 16 | 3.0 | 6.0 | 0.00 | 0.00 | 0.00 | 73 | 1013.1 |
| 20260504181218 | 59 | 19 | 3.0 | 7.0 | 0.00 | 0.00 | 0.00 | 73 | 1013.0 |
| 20260504180003 | 59 | 23 | 4.0 | 8.0 | 0.00 | 0.05 | 0.00 | 71 | 1013.2 |
| 20260504175003 | 60 | 25 | 4.0 | 9.0 | 0.00 | 0.08 | 0.00 | 71 | 1012.9 |
| 20260504174003 | 60 | 27 | 5.0 | 11.0 | 0.00 | 0.08 | 0.00 | 71 | 1013.0 |
| 20260504173003 | 60 | 26 | 4.0 | 8.0 | 0.00 | 0.08 | 0.00 | 73 | 1012.8 |
| 20260504172003 | 60 | 23 | 4.0 | 8.0 | 0.00 | 0.08 | 0.00 | 73 | 1012.8 |
| 20260504171003 | 60 | 25 | 5.0 | 11.0 | 0.00 | 0.08 | 0.00 | 71 | 1012.9 |